Tracking 19242 objects as of 15-Aug-2018
HD Live streaming from Space Station
objects crossing your sky now

FREGAT R/B

Track FREGAT R/B now!


NORAD ID: 40546
Int'l Code: 2015-017C
Perigee: 23,509.2 km
Apogee: 23,604.2 km
Inclination: 56.0 °
Period: 858.8 minutes
Semi major axis: 29927 km
RCS: Unknown
Launch date: March 27, 2015
Source: Commonwealth of Independent States (former USSR) (CIS)
Launch site: FRENCH GUIANA (FRGUI)

Note: This is a ROCKET BODY
aabbcc
Your satellite tracking list
Your tracking list is empty




NASA's NSSDC Master Catalog

Two Line Element Set (TLE):
1 40546U 15017C   18226.28991684 -.00000054  00000-0  00000+0 0  9998
2 40546  55.9596  61.3282 0015877 180.5549 179.5018  1.67684561 20717
Source of the keplerian elements: AFSPC